Regional Weather Roundup
Issued by NWS Grand Forks, ND

Home | Current Version | Previous Version | Text Only | Print | Product List | Glossary On
Versions: 1 2 3 4 5 6 7 8 9 10 11 12 13 14 15 16 17 18 19 20 21 22 23 24 25 26 27 28 29 30 31 32 33 34 35 36 37 38 39 40 41 42 43 44 45 46 47 48 49 50
000
ASUS43 KFGF 250531
RWRFGF
PRAIRIE TO PINES  WEATHER ROUNDUP
NATIONAL WEATHER SERVICE EASTERN NORTH DAKOTA/GRAND FORKS ND
1200 AM CDT THU MAY 25 2017

 **SATELLITE DATA USED TO AUGMENT SKY COVER AT AUTOMATED STATIONS**
 *****  WEATHER ACROSS EASTERN NORTH DAKOTA  *****

CITY           SKY/WX    TMP DP  RH WIND       PRES   REMARKS
GRAND FORKS    FAIR      54  43  66 SE12      29.60S
GRAND FRKS AFB FAIR      54  42  65 SE13      29.60S
DEVILS LAKE    FAIR      54  44  69 SE18G24   29.55F
FARGO          FAIR      55  42  61 SE14      29.62S
WAHPETON ARPT  FAIR      52  43  71 SE14G21   29.63F
$$

 ***** WEATHER ACROSS CENTRAL AND WESTERN NORTH DAKOTA  *****

CITY           SKY/WX    TMP DP  RH WIND       PRES   REMARKS
BISMARCK       FAIR      60  43  53 SE20G26   29.43R
MINOT          LGT RAIN  59  47  64 SE10      29.41R
JAMESTOWN      FAIR      52  44  74 SE22G28   29.52S
MINOT AFB      LGT RAIN  57  48  72 SE13      29.41R
GARRISON         N/A     59  41  51 SE9       29.41R
WILLISTON      LGT RAIN  55  51  86 S7        29.40F
DICKINSON      CLOUDY    53  48  83 NE6       29.40R
HETTINGER      CLOUDY    55  46  71 N9        29.38R
$$

 *****  OTHER AIRPORT OBSERVATIONS IN OUR AREA  *****

CITY           SKY/WX    TMP DP  RH WIND       PRES   REMARKS
WALHALLA       NOT AVBL
GRAFTON AIRPOR FAIR      52  43  71 SE9       29.63S
VALLEY CITY AR FAIR      52  46  82 SE15G24   29.57F
CANDO          NOT AVBL
CAVALIER APRT  FAIR      55  41  58 SE9G16    29.59F
GWINNER        CLEAR     50  45  81 MISG      29.59S
SHEYENNE NWR     N/A     51  44  77 SE13      29.95S
ROLLA          FAIR      54  41  62 SE24G32   29.50F
 ***** THE ABOVE OBSERVATIONS ARE NON NWS ARE NOT QUALITY
       CONTROLLED AND MAY MIS-REPORT RAIN FOR SNOW...
$$

  *****  WEATHER ACROSS NORTHERN MINNESOTA  *****

CITY           SKY/WX    TMP DP  RH WIND       PRES   REMARKS
FLAG ISLAND    NOT AVBL
WARROAD        NOT AVBL
ROSEAU         NOT AVBL
HALLOCK        NOT AVBL
THF RVR FALLS  FAIR      51  42  71 SE12      29.66S
BAUDETTE       FAIR      48  40  73 SE8       29.70S
WASKISH        NOT AVBL
CROOKSTON      NOT AVBL
STEPHEN NDAWN    N/A     52  41  66 SE8         N/A
GREENBUSH NDAW   N/A     54  41  62 SE12        N/A
$$
  *****  WEATHER ACROSS CENTRAL AND WEST MINNESOTA  *****

CITY           SKY/WX    TMP DP  RH WIND       PRES   REMARKS
FOSSTON        NOT AVBL
BEMIDJI        NOT AVBL
PARK RAPIDS    CLOUDY    54  40  59 SE7       29.69S
ELBOW LAKE     NOT AVBL
WADENA         NOT AVBL
DETROIT LAKES  NOT AVBL
MOORHEAD       NOT AVBL
FERGUS FALLS   NOT AVBL
MORRIS MN      NOT AVBL
STAPLES        NOT AVBL
$$
  *****  WEATHER ELSEWHERE ACROSS MINNESOTA  *****

CITY           SKY/WX    TMP DP  RH WIND       PRES   REMARKS
DULUTH         FAIR      44  41  89 E6        29.75S
INTRNTL FALLS  FAIR      47  38  71 SE3       29.74R
ELY            NOT AVBL
CLOQUET        NOT AVBL
WHEATON        NOT AVBL
BRAINERD       CLOUDY    53  44  71 E5        29.72S
HIBBING        FAIR      39  37  92 CALM      29.76R
ALEXANDRIA     MOCLDY    49  41  74 SE8       29.71S
SAINT CLOUD    CLOUDY    53  49  86 E3        29.70F
MINNEAPOLIS    CLOUDY    58  45  62 VRB5      29.71S
$$

  *****  WEATHER ACROSS SOUTH DAKOTA  *****

CITY           SKY/WX    TMP DP  RH WIND       PRES   REMARKS
SIOUX FALLS    FAIR      53  45  74 SE12G21   29.64F
BROOKINGS      FAIR      50  44  80 SE13      29.64F
WATERTOWN      FAIR      50  42  74 SE9G18    29.62F
HURON          FAIR      54  45  71 SE17G23   29.54F
SISSETON         N/A     49  45  86 S8        29.62F
ABERDEEN       FAIR      53  44  71 SE16      29.55F
MITCHELL       FAIR      55  45  68 SE18      29.58F
PIERRE         FAIR      57  43  59 SE17G24   29.43R
MOBRIDGE       FAIR      58  42  55 SE24G35   29.38F
RAPID CITY     FAIR      64  51  62 SW6       29.29R
$$

  *****  SOME WEATHER IN NEARBY STATES *****

CITY           SKY/WX    TMP DP  RH WIND       PRES   REMARKS
GLASGOW MT       N/A     53  18  25 W10       29.37R
GREAT FALLS MT CLOUDY    51  24  34 W24G33    29.54R
CHEYENNE WY    FAIR      53  40  61 W10       29.64R
SCOTTSBLUFF NE FAIR      69  39  33 W6        29.44F
OMAHA NE       FAIR      54  44  69 SE3       29.67F
DES MOINES IA  FAIR      53  48  83 CALM      29.70R
DAVENPORT IA   CLOUDY    55  51  86 N12       29.65F
CHICAGO IL     CLOUDY    54  49  83 N12       29.56S
EAU CLAIRE WI  CLOUDY    53  49  86 CALM      29.71F
LA CROSSE WI   FAIR      55  50  83 VRB3      29.70S
$$

  *****  SOME NATIONAL WEATHER *****

CITY           SKY/WX    TMP DP  RH WIND       PRES   REMARKS
LA GUARDIA NY  CLOUDY    59  51  75 E12       29.80F
RALEIGH NC     CLOUDY    68  67  96 S12       29.51F
ATLANTA GA     LGT RAIN  60  54  80 W10       29.60S
NEW ORLEANS LA FAIR      63  56  78 W5        29.78R
OKLAHOMA CITY  FAIR      58  47  66 SE12      29.71S
ALBUQUERQUE NM FAIR      73  18  12 SW7       29.81R
SALT LAKE CITY MOCLDY    75  39  27 S7        29.53R
LOS ANGELES CA MOCLDY    58  53  84 W9        29.85R
BOISE ID       FAIR      58  26  29 NW24G30   29.67R
SEATTLE WA     FAIR      57  39  51 N7        29.95R
$$

*** WEATHER ACROSS MANITOBA...SASKATCHEWAN AND ONTARIO ***
                ***ONTARIO***

CITY           SKY/WX    TMP DP  RH WIND       PRES   REMARKS
GERALDTON      CLEAR     43  36  75 CALM      29.82R
THUNDER BAY    CLEAR     41  37  87 VRB2      29.78S
SIOUX LOOKOUT  CLEAR     54  25  32 SE5       29.74R
TORONTO        CLOUDY    59  50  72 E9        29.61F
BIG TROUT LK   CLEAR     52  30  43 SE10      29.73S
PICKLE LAKE    NOT AVBL
DRYDEN         CLEAR     54  34  47 S7        29.73R
KENORA         CLEAR     54  36  50 S6        29.70R
$$
                *** MANITOBA***

CITY           SKY/WX    TMP DP  RH WIND       PRES   REMARKS
BRANDON        CLOUDY    57  41  54 SE20G29   29.47S
DAUPHIN        CLOUDY    63  41  45 S16G25    29.43S
ISLAND LAKE    PTCLDY    57  34  41 SE6       29.63R
PILOT MOUND      N/A     54  41  62 SE22        N/A
THE PAS        CLOUDY    61  41  48 SE17G25   29.39F
THOMPSON       MOCLDY    57  36  44 S3        29.55R
WINNIPEG       MOCLDY    59  39  47 S18       29.60S
LYNN LAKE      CLOUDY    57  36  44 S5        29.47R
CHURCHILL      MOCLDY    46  43  87 SE7       29.55R
GILLAM         PTCLDY    50  36  57 S3        29.58R
$$
                ***SASKATCHEWAN***

CITY           SKY/WX    TMP DP  RH WIND       PRES   REMARKS
ESTEVAN        LGT RAIN  54  52  94 SE20      29.35F
KINDERSLEY     LGT RAIN  46  39  76 SW7       29.16S
LLOYDMINSTER   LGT RAIN  50  50 100 N17G31    29.24F
PRINCE ALBERT  MOCLDY    48  45  87 E7        29.22R
REGINA         MOCLDY    52  36  54 S2        29.26F
YORKTON          N/A     55  48  76 SE20G28   29.31F
N. BATTLEFORD  CLOUDY    48 N/A N/A N3        29.17S
LA RONGE       LGT RAIN  54  43  66 E8        29.34R
SASKATOON      MOCLDY    48  43  81 SE9       29.20F
SWIFT CURRENT  CLOUDY    46  36  66 W10       29.22F
$$
NOTE: THESE ARE AUTOMATED STATIONS WITH LIMITED QUALITY CONTROL
      "FAIR" INDICATES FEW OR NO CLOUDS BELOW 12,000 FEET WITH NO
      SIGNIFICANT WEATHER AND/OR OBSTRUCTIONS TO VISIBILITY.
      SKY/WX - SKY CONDITION AND SIGNIFICANT WEATHER.
      TMP - AIR TEMPERATURE.    DP   - DEWPOINT TEMPERATURE.
      RH  - RELATIVE HUMIDITY.  PRES - PRESSURE.
      HX  - HEAT INDEX.         WCI  - WIND CHILL INDEX.
$



USA.gov is the U.S. government's official web portal to all federal, state and local government web resources and services.